Location: Unspecified
(0.0000°N, 0.0000°E)
Time: 22:45:56
(UTC+00:00)

Tiangong - Pass Details

Date: 19 January 2022
Orbit: 381 x 387 km, 41.5° (Epoch: 27 January)

Event Time Altitude Azimuth Distance (km) Brightness Sun altitude
Rises 19:42:41 0° 252° (WSW) 2,259 6.5 -21.5°
Reaches altitude 10° 19:45:15 10° 274° (W) 1,402 4.8 -22.1°
Maximum altitude 19:47:24 17° 317° (NW) 1,064 3.5 -22.6°
Enters shadow 19:47:28 17° 318° (NW) 1,064 3.5 -22.6°
